{"data":{"norad_id":67772,"epoch":"2026-05-25T04:23:27.011328Z","epoch_age_seconds":53043,"freshness":"FRESH","line1":"1 67772U 26030J   26145.18295152  .00010314  00000+0  50364-3 0  9990","line2":"2 67772  51.8830 214.8166 0002703  18.9345 341.1734 15.18806932 16784","mean_motion":15.18806932,"eccentricity":0.0002703,"inclination_deg":51.883,"raan_deg":214.8166,"arg_perigee_deg":18.9345,"mean_anomaly_deg":341.1734,"bstar":0.00050364,"rev_number":1678,"period_min":94.811260711312,"perigee_km":507.58347451602,"apogee_km":511.30690144685,"semimajor_km":6887.5821879814,"source":"CELESTRAK","updated_at":"2026-05-25T13:38:07.256101Z"}}